Theta_e
306 306 306 306 307 306 304 300 293 305 308 294 293 287 289 292 292 294 292 292 289 287 288 287 286 286 289 292 295 290 297 296 292 295 300 303 302 300 301 294 293 295 294 295
306 306 306 306 306 306 302 295 296 306 305 286 285 288 289 291 291 291 291 289 291 292 289 285 288 290 293 293 292 291 297 294 290 293 297 300 299 300 301 302 302 296 292 296
306 306 306 306 306 306 304 297 291 296 300 295 289 287 287 288 293 291 292 291 292 290 288 290 287 288 292 294 292 295 297 295 294 291 294 298 296 298 300 301 296 296 296 298
305 306 307 306 306 306 304 297 292 294 289 290 290 289 288 285 286 291 293 289 289 288 285 287 285 287 289 293 293 295 294 292 295 297 297 298 298 298 299 298 300 296 298 299
305 306 307 307 307 306 300 294 291 294 292 292 290 289 288 287 289 289 289 288 289 290 287 288 285 288 289 288 294 294 297 293 296 293 297 297 296 298 299 300 300 300 300 301
305 305 306 307 307 306 301 299 301 294 291 289 287 288 288 289 291 292 293 292 290 289 291 294 295 296 295 293 291 291 292 292 293 290 296 296 293 298 299 300 302 302 298 303
305 305 306 307 308 306 307 305 302 291 288 288 288 288 290 289 291 288 293 293 290 294 300 300 299 296 295 295 293 295 290 289 295 291 295 287 299 304 305 301 301 303 304 306
305 306 306 307 308 308 306 307 301 292 287 290 290 289 289 292 294 292 292 294 296 301 296 292 288 288 290 291 293 292 294 290 291 292 291 297 298 300 301 302 298 304 304 306
305 306 307 307 308 309 306 307 307 300 289 292 294 290 291 290 291 292 293 300 303 300 295 291 283 281 286 286 288 294 295 295 289 294 289 288 296 301 305 306 297 304 306 306
304 305 306 307 308 309 307 307 309 300 291 296 295 290 290 293 292 288 293 296 296 300 292 287 285 285 290 285 284 288 290 290 290 292 293 294 299 302 306 297 297 305 306 307
304 305 305 306 308 309 308 306 309 300 295 296 299 297 293 293 293 288 294 293 296 294 289 288 286 286 288 288 289 288 288 288 290 293 290 287 302 301 298 299 305 305 307 307
304 305 305 306 307 308 308 303 308 307 296 297 304 303 304 302 300 295 294 292 290 295 292 291 290 287 290 288 285 293 288 289 289 289 290 300 303 302 305 305 305 305 306 307
304 304 305 305 306 308 307 305 306 302 297 298 301 299 304 305 304 306 290 294 295 293 299 295 292 286 289 286 287 290 293 296 291 291 296 299 302 304 304 305 305 306 307 307
304 304 305 305 305 307 308 304 307 302 297 290 298 306 304 306 304 302 299 297 299 298 295 293 294 290 295 291 291 290 294 296 293 292 298 300 302 303 304 304 305 305 307 308
304 305 305 305 305 306 307 306 305 306 297 292 295 304 305 305 304 302 301 299 296 295 294 295 292 298 296 297 295 292 294 292 291 290 297 297 301 304 304 303 304 306 306 306
304 304 304 304 305 306 305 303 308 306 302 293 290 304 303 304 305 304 302 301 298 297 295 294 297 299 297 293 290 295 297 298 299 296 301 302 304 305 306 305 306 307 307 307
304 304 304 305 307 307 304 302 307 306 303 295 291 297 303 305 303 304 305 304 304 301 301 298 298 298 297 295 290 297 298 299 301 303 302 300 302 302 305 306 307 308 308 308
303 303 305 307 307 305 306 309 306 306 300 300 292 295 299 305 300 300 307 303 304 303 300 299 296 297 297 291 296 296 298 299 300 301 303 303 304 305 305 306 306 306 306 308
303 303 306 306 307 306 308 307 308 307 302 294 293 290 291 305 302 303 301 303 294 301 293 293 294 292 288 291 292 294 296 297 299 300 301 303 303 303 304 304 305 304 305 306
303 305 305 303 306 305 308 303 299 298 300 300 294 300 294 302 299 298 297 299 295 292 295 297 294 294 298 300 301 303 302 302 302 299 299 301 302 302 303 303 304 305 305 305
302 298 298 303 306 305 304 298 297 299 296 301 301 301 297 304 295 293 298 292 297 290 294 292 291 291 297 302 301 303 304 304 303 303 303 304 304 304 304 304 305 306 307 307
298 298 299 300 299 300 295 295 297 295 294 299 298 299 301 303 301 297 297 290 292 288 299 292 289 296 300 301 301 303 304 305 305 304 303 304 304 304 304 305 305 305 307 308
303 296 294 296 299 289 290 287 292 293 298 299 300 297 302 301 301 298 296 288 288 297 293 292 296 300 301 302 302 303 304 304 304 303 304 303 303 305 305 303 304 305 305 306
296 293 289 293 291 294 295 295 297 300 300 300 300 299 299 301 296 297 287 295 294 288 287 289 296 299 301 303 304 303 303 304 303 303 303 303 302 302 303 303 305 304 303 303
293 295 287 292 297 300 300 301 301 302 304 301 300 299 298 297 293 295 291 287 286 290 290 298 300 302 303 303 304 304 304 304 303 304 303 303 302 301 303 303 305 303 303 304
294 294 295 298 296 296 298 299 299 303 302 303 301 296 293 292 294 289 288 288 286 290 299 300 302 302 303 304 305 303 305 305 305 304 304 304 303 302 303 304 304 304 302 301
293 294 300 298 297 297 297 299 299 304 300 295 297 290 289 296 291 289 292 290 297 300 299 303 304 304 304 305 305 304 304 305 304 304 304 304 305 305 302 302 305 304 305 301
Wind_Speed
19 19 19 20 20 22 10 4 3 5 6 4 3 5 12 10 11 11 10 9 9 8 10 14 7 7 6 2 9 9 8 7 15 25 24 24 26 18 23 13 16 13 8 7
18 18 18 19 19 16 6 7 4 3 7 4 6 8 17 13 13 14 9 11 7 14 15 8 6 7 6 4 5 4 5 10 11 18 23 22 28 24 22 16 10 16 14 5
18 17 18 19 18 16 8 5 5 2 3 2 7 12 9 12 11 11 9 14 6 11 14 3 7 10 5 7 6 14 12 10 15 8 22 17 25 26 26 20 12 14 16 10
18 18 18 19 17 15 7 4 5 4 5 7 12 9 9 13 9 6 12 8 7 13 13 16 2 7 6 8 8 8 5 16 19 15 6 8 24 26 23 24 21 16 12 19
19 19 18 17 16 14 2 5 4 5 11 9 11 8 8 14 14 8 12 11 16 16 16 14 16 13 6 4 6 8 8 13 15 15 12 8 14 26 24 25 23 16 11 13
19 18 19 17 16 8 2 0 3 3 7 6 8 7 13 10 14 8 10 13 15 15 11 13 15 14 13 13 16 8 7 7 13 16 12 6 12 20 22 22 21 18 19 17
18 18 18 16 15 5 4 2 2 3 7 8 8 14 14 17 16 10 15 13 11 10 19 19 19 18 18 18 14 10 5 9 8 16 11 12 12 6 7 6 8 8 8 10
19 17 17 15 15 7 5 2 2 2 6 12 11 12 15 15 12 9 12 9 11 13 14 9 6 3 7 6 8 7 9 3 7 9 13 17 11 8 2 1 8 9 7 10
20 18 16 14 13 9 6 4 3 3 5 4 15 13 11 11 10 10 10 12 10 7 8 5 5 3 5 3 4 7 8 8 5 9 15 9 9 9 5 6 7 10 9 10
20 19 17 15 14 11 5 4 4 3 5 9 7 7 8 7 6 5 11 17 8 6 5 2 4 2 7 2 5 1 3 5 8 5 5 7 9 9 8 9 8 7 9 10
21 20 18 15 14 12 5 5 6 3 5 12 13 9 9 8 8 4 10 9 3 7 7 5 4 4 4 3 3 4 3 1 0 5 4 6 13 3 2 6 5 8 9 11
21 20 18 16 14 11 7 5 4 4 5 10 17 17 16 17 18 9 3 3 4 5 5 5 4 2 3 5 2 4 2 4 3 5 4 5 8 12 10 7 7 8 10 11
22 21 19 17 15 12 7 6 1 3 4 9 7 3 2 4 5 5 2 1 3 4 8 5 2 3 4 4 5 3 2 4 2 2 5 7 9 8 11 10 11 12 11 11
23 22 21 18 15 12 8 6 3 2 4 4 5 4 6 4 7 8 10 6 5 3 2 4 3 3 2 4 3 4 6 5 5 3 8 5 2 10 14 12 13 13 14 12
24 24 22 19 15 10 7 6 6 5 2 5 8 17 3 4 7 9 9 9 4 2 3 4 2 2 3 2 3 5 5 6 4 3 7 8 11 13 13 12 15 16 15 16
25 26 26 21 14 9 4 5 6 8 5 3 5 7 2 4 5 2 6 5 4 3 2 4 4 4 5 4 4 5 6 6 5 7 12 14 14 9 11 16 16 15 16 16
25 25 26 20 6 8 3 5 6 7 5 3 5 5 3 4 4 4 3 5 3 3 3 3 4 3 5 3 5 14 13 11 11 11 9 11 10 14 15 15 16 13 15 13
24 24 20 4 12 1 5 4 8 7 3 3 4 5 5 3 3 1 2 2 1 1 3 3 5 6 3 3 11 12 11 13 7 11 10 11 12 13 14 13 14 16 14 13
25 20 4 3 5 4 4 3 9 4 3 3 2 4 4 4 2 2 2 2 1 4 3 1 3 2 3 4 8 10 10 8 12 13 13 11 11 12 13 14 14 14 15 15
23 5 5 3 4 6 6 3 3 3 4 4 4 2 4 5 4 2 2 2 2 1 3 1 1 3 5 8 9 9 7 6 5 7 11 15 15 13 14 15 14 15 15 15
5 5 3 6 3 5 4 4 4 5 5 5 4 4 7 2 4 3 1 2 2 2 4 2 2 2 4 6 5 6 6 7 6 6 8 9 10 13 13 14 14 15 17 16
9 9 7 4 4 4 5 4 4 5 2 4 4 5 3 1 2 2 1 2 3 2 2 3 3 3 5 6 6 6 7 9 10 11 11 10 12 12 13 14 14 15 17 18
2 3 4 3 2 3 6 6 4 3 5 4 2 4 2 3 3 2 1 2 2 5 3 0 1 2 3 3 4 8 10 11 12 14 14 14 12 12 12 12 12 14 15 16
3 3 5 6 5 6 5 5 2 3 3 3 3 2 2 1 3 2 3 1 1 3 2 2 3 6 7 5 4 6 9 11 13 13 14 15 16 13 13 13 14 13 13 15
5 4 7 7 7 4 4 4 3 5 3 3 3 3 3 3 3 2 2 3 4 3 3 1 3 5 7 7 7 7 8 10 11 12 13 15 15 11 12 12 13 15 17 17
4 7 6 5 6 7 7 8 8 4 4 2 3 3 3 4 3 3 4 3 4 3 3 4 4 5 6 5 5 6 7 8 10 11 11 12 14 13 12 14 14 16 15 15
6 7 8 10 7 7 6 4 6 5 6 6 3 4 5 3 4 3 3 4 2 5 6 3 4 6 5 5 5 5 5 7 9 9 10 10 10 12 13 14 15 16 16 15
Wind_Direction
342 339 341 339 339 338 316 315 289 37 313 245 6 322 327 315 304 313 286 281 290 288 305 302 297 244 188 247 295 291 208 292 273 195 198 217 203 192 195 202 192 237 274 263
341 338 340 336 338 348 325 340 295 66 293 14 347 321 306 280 301 317 319 307 309 322 301 292 274 263 102 248 278 294 5 232 235 193 193 202 207 197 193 208 208 203 216 229
339 337 335 331 338 336 304 300 325 85 13 4 320 332 319 324 315 308 303 307 312 322 335 324 347 326 339 257 304 279 256 254 255 220 193 180 206 195 197 199 208 210 218 227
342 335 332 334 339 333 291 358 28 352 320 330 321 306 297 304 313 325 305 300 291 337 321 314 58 314 285 221 261 276 251 226 233 260 333 280 199 198 195 194 215 218 198 231
340 334 331 333 333 323 306 332 341 342 294 304 312 305 302 310 318 320 306 306 322 318 300 297 293 292 291 303 308 333 294 240 238 245 236 261 204 196 196 206 213 218 229 241
337 334 329 333 334 323 272 115 288 274 302 311 313 336 319 302 309 271 306 310 306 300 314 316 302 293 282 271 286 304 319 304 222 229 201 223 183 185 194 210 215 223 224 236
336 336 328 330 329 327 292 279 284 270 295 325 305 307 311 321 322 300 294 298 302 299 313 299 271 257 256 251 250 249 275 304 259 215 178 206 80 32 279 164 61 349 287 303
337 336 330 328 325 331 283 266 216 270 287 307 304 329 315 304 323 322 299 313 302 300 301 274 254 244 249 237 233 352 217 285 259 214 193 109 129 47 79 304 73 27 346 324
335 336 334 327 323 328 283 270 233 283 289 270 322 310 303 310 325 315 326 324 333 294 285 308 321 336 315 46 163 210 229 218 284 198 189 195 55 336 236 229 133 23 356 350
335 335 334 330 318 317 284 271 205 241 269 282 305 297 302 296 305 280 295 339 306 294 317 330 321 313 335 316 311 305 131 143 235 197 139 97 9 347 144 209 62 359 357 3
333 333 331 326 317 317 287 280 178 233 267 293 288 300 285 278 278 277 319 316 14 292 350 354 347 318 355 280 320 352 9 324 137 298 129 123 354 99 332 38 39 9 358 4
328 329 329 323 314 306 290 269 158 210 236 275 304 282 271 255 262 283 246 283 283 297 321 5 326 297 301 306 90 321 89 7 13 7 71 70 58 70 60 22 11 14 354 355
322 322 323 321 311 295 264 274 208 210 261 282 254 272 19 201 230 252 230 208 271 332 327 319 317 316 323 347 30 323 44 16 44 243 355 84 69 52 32 9 359 354 351 349
319 318 316 316 309 288 251 246 224 233 290 282 325 165 320 127 188 191 199 231 245 277 302 295 307 289 2 334 353 335 355 339 358 55 36 140 72 21 0 349 346 349 348 348
318 318 316 315 308 280 245 246 243 219 266 303 306 302 77 204 214 233 222 231 234 266 265 278 302 324 308 233 118 48 358 7 9 14 340 320 323 341 343 342 339 338 339 339
317 320 316 312 294 241 218 230 169 202 167 268 293 351 277 342 337 191 220 204 196 233 197 219 263 29 305 336 47 29 33 351 335 306 317 311 306 316 349 329 326 333 325 325
318 322 318 307 244 186 250 2 49 136 145 250 290 279 104 333 78 307 138 213 207 232 234 247 343 2 293 298 31 2 358 338 312 303 320 310 339 328 321 325 326 319 317 319
318 325 324 341 139 246 231 119 156 149 218 229 286 302 304 22 346 9 334 303 242 108 332 14 356 320 307 19 5 335 338 335 351 341 325 306 308 305 320 326 328 321 319 326
318 323 194 211 216 209 76 16 154 196 290 290 225 296 316 341 14 292 296 326 329 37 38 10 321 354 32 262 291 294 289 310 306 316 316 317 322 321 327 327 323 322 321 319
310 240 224 205 67 327 136 196 181 190 200 227 257 6 294 312 337 349 343 351 312 355 91 193 278 35 304 261 252 278 314 321 319 323 319 324 320 329 324 320 317 314 313 312
336 335 301 353 290 225 212 204 218 164 227 194 233 299 321 115 315 333 6 294 320 249 106 262 146 302 334 8 6 1 10 10 27 359 3 358 319 312 316 318 318 316 312 308
314 303 303 299 255 218 232 207 168 215 242 174 267 2 328 47 259 268 297 296 301 282 95 212 189 261 323 7 4 2 347 359 1 1 4 0 2 354 333 321 326 325 320 310
218 212 235 226 203 242 216 196 190 215 183 184 280 311 344 158 262 254 297 249 256 318 254 23 30 52 325 357 349 354 8 8 1 2 1 354 353 0 351 338 334 332 321 311
264 262 265 224 199 230 208 211 207 129 223 246 287 262 245 160 218 264 221 195 231 246 249 228 349 6 345 332 310 321 356 359 355 359 356 356 1 354 342 345 336 336 330 333
257 206 244 229 239 250 223 230 204 186 213 228 212 224 231 180 238 215 291 220 235 227 211 242 314 330 323 326 328 320 335 349 351 351 357 352 355 349 346 356 352 349 341 332
236 235 253 231 254 244 213 223 231 189 199 177 241 250 222 212 204 193 214 239 228 226 215 267 326 325 321 316 322 295 317 338 338 344 350 350 355 349 339 340 343 348 344 330
227 235 232 260 267 277 282 241 242 168 205 235 215 229 230 120 220 222 190 215 211 217 233 246 304 299 306 309 322 286 312 318 335 337 341 335 348 355 349 336 343 343 351 342